This demonstration page uses our WeatherBlox Daily Observations layout. Learn more.

Left ArrowRight Arrow

Hourly Observations for August 4, 2021

Temp ( °F °C ) Dew Point ( °F °C ) Humidity (%) Winds ( mph kmh ) Pressure ( in mb ) Visibility ( mi km ) Precip ( " mm )
12:54 am 00:54 Cloudy 71 21.7 57 13.9 61 61 SSE 7 11 30.07 1018 10 16 0.00 0.00
1:54 am 01:54 Mostly Cloudy 70 21.1 56 13.3 61 61 SSE 12 19 30.07 1018 10 16 0.00 0.00
2:54 am 02:54 Cloudy 69 20.6 55 12.8 61 61 SSE 9 15 30.07 1018 10 16 0.00 0.00
3:54 am 03:54 Clear 66 18.9 55 12.8 68 68 S 8 13 30.08 1019 10 16 0.00 0.00
4:54 am 04:54 Mostly Clear 62 16.7 56 13.3 80 80 S 8 13 30.08 1019 10 16 0.00 0.00
5:54 am 05:54 Cloudy 65 18.3 56 13.3 73 73 SSE 12 19 30.09 1019 10 16 0.00 0.00
6:54 am 06:54 Mostly Cloudy 65 18.3 57 13.9 76 76 S 8 13 30.09 1019 10 16 0.00 0.00
7:54 am 07:54 Mostly Sunny 66 18.9 57 13.9 73 73 SSE 10 17 30.09 1019 10 16 0.00 0.00
8:54 am 08:54 Mostly Sunny 71 21.7 59 15 66 66 S 10 17 30.09 1019 10 16 0.00 0.00
9:54 am 09:54 Sunny 75 23.9 59 15 58 58 S 14 22 30.07 1018 10 16 0.00 0.00
10:54 am 10:54 Sunny 78 25.6 58 14.4 50 50 S 22 35 30.06 1018 10 16 0.00 0.00
11:54 am 11:54 Sunny 81 27.2 60 15.6 49 49 S 18 30 30.05 1018 10 16 0.00 0.00
12:54 pm 12:54 Sunny 83 28.3 61 16.1 48 48 SSE 21 33 30.02 1017 10 16 0.00 0.00
1:54 pm 13:54 Sunny 84 28.9 62 16.7 48 48 S 22 35 29.99 1016 10 16 0.00 0.00
2:54 pm 14:54 Sunny 86 30 62 16.7 45 45 SSE 15 24 29.99 1016 10 16 0.00 0.00
3:54 pm 15:54 Sunny 86 30 62 16.7 45 45 S 17 28 29.97 1015 9 14 0.00 0.00
4:54 pm 16:54 Sunny 86 30 63 17.2 46 46 S 18 30 29.96 1015 9 14 0.00 0.00
5:54 pm 17:54 Sunny 85 29.4 62 16.7 46 46 S 20 31 29.95 1014 9 14 0.00 0.00
6:54 pm 18:54 Mostly Sunny 83 28.3 62 16.7 49 49 S 16 26 29.94 1014 9 14 0.00 0.00
7:54 pm 19:54 Sunny 82 27.8 62 16.7 51 51 SSE 13 20 29.94 1014 9 14 0.00 0.00
8:54 pm 20:54 Clear 80 26.7 61 16.1 52 52 SSE 17 28 29.94 1014 10 16 0.00 0.00
9:54 pm 21:54 Clear 78 25.6 61 16.1 56 56 S 17 28 29.94 1014 10 16 0.00 0.00
10:54 pm 22:54 Mostly Clear 76 24.4 61 16.1 60 60 S 12 19 29.98 1015 10 16 0.00 0.00
11:54 pm 23:54 Mostly Cloudy 76 24.4 61 16.1 60 60 S 14 22 29.96 1015 10 16 0.00 0.00

Powered by AerisWeather